Flag for Germany Weather past 2 weeks in Demmin, Mecklenburg-Western Pomerania, Germany

Now
60 °F

Scattered clouds.


Feels Like: 60 °F
Forecast: 51 / 75 °F
Wind: 2 mph from Northwest

Location: Greifswald

Current Time: Aug 27, 2014 at 10:51:07 AM

Latest Report: Aug 27, 2014 at 9:00 AM


Visibility: 14 mi

Pressure: 29.89 "Hg

Humidity: 90%

Dew point: 57 °F

Location of DemminLocation

Historic Weather in Demmin — Graph

°F

Demmin temperature yesterday

Maximum temperature yesterday: 63 °F (at 2:00 PM)
Minimum temperature yesterday: 44 °F (at 6:00 AM)
Average temperature yesterday: 54 °F

Past Weeks' High & Low Weather Summary

 TemperatureHumidityPressure
High75 °F (Aug 13, 5:00 PM)99% (Aug 27, 7:00 AM)29.96 "Hg (Aug 27, 7:00 AM)
Low44 °F (Aug 26, 6:00 AM)44% (Aug 13, 6:00 PM)29.47 "Hg (Aug 18, 3:00 PM)
Average59 °F75%29.80 "Hg
* Reported Aug 12 9:00 AM — Aug 27 9:00 AM, Demmin, Weather by CustomWeather, © 2014

Note: Actual official high and low records may vary slightly from our data, if they occured in-between our weather recording intervals... More about our weather records

Advertising

Demmin weather history for previous 24 hours

 ConditionsComfort  
Time TempWeatherWind HumidityBarometerVisibility
9:00 AM
Aug 27
60 °FScattered clouds.2 mph90%29.89 "Hg14 mi
8:00 AM53 °FScattered clouds.2 mph98%29.88 "Hg6 mi
7:00 AM49 °FFog.1 mph99%29.87 "Hg3 mi
6:00 AM49 °FFog.2 mph98%29.86 "Hg4 mi
5:00 AM49 °FFog.2 mph98%29.85 "Hg3 mi
4:00 AM49 °FFog.2 mph98%29.84 "Hg3 mi
3:00 AM50 °FFog.2 mph97%29.83 "Hg4 mi
2:00 AM51 °FClear.2 mph97%29.83 "Hg6 mi
1:00 AM51 °FClear.2 mph96%29.81 "Hg7 mi
12:00 AM52 °FClear.2 mph94%29.80 "Hg9 mi
10:00 PM
Aug 26
54 °FClear.1 mph91%29.80 "Hg22 mi
9:00 PM55 °FPassing clouds.1 mph86%29.79 "Hg19 mi
8:00 PM59 °FPassing clouds.2 mph75%29.78 "Hg28 mi
7:00 PM63 °FScattered clouds.5 mph64%29.77 "Hg28 mi
6:00 PM62 °FPartly sunny.3 mph68%29.76 "Hg25 mi
4:00 PM63 °FScattered clouds.3 mph61%29.75 "Hg28 mi
3:00 PM62 °FPartly sunny.5 mph62%29.75 "Hg28 mi
2:00 PM63 °FScattered clouds.5 mph58%29.75 "Hg25 mi
1:00 PM62 °FPassing clouds.3 mph52%29.76 "Hg22 mi
12:00 PM59 °FPassing clouds.3 mph59%29.76 "Hg28 mi
11:00 AM60 °FPassing clouds.3 mph64%29.76 "Hg16 mi
10:00 AM58 °FPassing clouds.2 mph73%29.76 "Hg19 mi
Weather by CustomWeather, © 2014

See weather overviewHow to use our weather pages